Location: Buch
(50.1863°N, 11.0141°E)
Time: 13:17:23
(UTC+00:00)

USA 229 DEB - Pass Details

Date: 18 January 2020
Orbit: 991 x 1221 km, 63.4° (Epoch: 06 February)

Event Time Altitude Azimuth Distance (km) Brightness Sun altitude
Exits shadow 03:43:52 45° 359° (N) 1,426 4.3 -32.0°
Drops below altitude 10° 03:49:23 10° 41° (NE) 2,976 6.5 -31.1°
Sets 03:52:15 0° 47° (NE) 3,972 7.4 -30.6°
